WB2COY Weather Reports


time (UTC)temp
C
wind
direction
speed
KPH
gust
KPH
rain 1hr
cm
rain 24hr
cm
rain mn
cm
humidity
%
barometer
mb
20260507223016 15 23 1.6 6.4 0.00 0.05 0.05 28 1008.0
20260507220017 15 23 1.6 8.0 0.00 0.05 0.05 29 1008.2
20260507213016 15 23 3.2 9.7 0.00 0.05 0.05 29 1007.9
20260507210016 15 23 3.2 9.7 0.00 0.05 0.05 28 1007.7
20260507203016 15 23 1.6 9.7 0.00 0.05 0.05 28 1007.6
20260507200016 15 23 1.6 9.7 0.00 0.15 0.05 30 1007.8
20260507193016 16 23 3.2 9.7 0.00 0.18 0.05 27 1008.2
20260507190018 17 23 3.2 9.7 0.00 0.20 0.05 25 1008.5
20260507183016 17 293 1.6 8.0 0.00 0.28 0.05 24 1008.6
20260507180036 17 45 3.2 8.0 0.00 0.33 0.05 28 1008.9
20260507173016 16 0 1.6 8.0 0.00 0.41 0.05 31 1009.4
20260507170138 15 23 1.6 9.7 0.00 0.46 0.05 32 1009.7
20260507163015 14 68 1.6 8.0 0.00 0.53 0.05 31 1010.0
20260507160015 13 0 1.6 6.4 0.00 0.66 0.05 35 1010.6
20260507153015 13 338 3.2 8.0 0.00 0.76 0.05 33 1010.9
20260507150015 12 68 3.2 11.3 0.00 0.79 0.05 37 1011.1
20260507143015 12 23 3.2 9.7 0.00 0.79 0.05 39 1011.1
20260507140015 11 23 4.8 12.9 0.00 0.79 0.05 40 1011.4
20260507133015 11 23 3.2 11.3 0.00 0.79 0.05 43 1011.5
20260507130016 11 68 3.2 8.0 0.00 0.79 0.05 54 1011.3
20260507123016 11 23 3.2 9.7 0.00 0.79 0.05 57 1011.2
20260507120015 12 0 1.6 6.4 0.00 0.79 0.05 63 1011.2
20260507113015 10 0.0 4.8 0.00 0.79 0.05 71 1011.0
20260507110019 8 0.0 0.0 0.03 0.79 0.05 76 1010.7
20260507103015 8 0.0 0.0 0.03 0.79 0.05 76 1010.1
20260507100016 8 0.0 0.0 0.00 0.76 0.03 76 1009.6
20260507093038 8 0.0 0.0 0.00 0.76 0.03 76 1009.4
20260507090016 8 0.0 0.0 0.00 0.76 0.03 76 1009.3
20260507083017 9 0.0 0.0 0.00 0.76 0.03 76 1009.7
20260507080017 9 0.0 0.0 0.00 0.76 0.03 76 1009.8
20260507073016 10 0.0 0.0 0.00 0.76 0.03 76 1009.9
20260507070017 10 0.0 0.0 0.00 0.76 0.03 74 1009.5
20260507063017 10 0.0 0.0 0.03 0.76 0.03 73 1009.2
20260507060017 10 0.0 3.2 0.03 0.76 0.03 72 1008.9
20260507053016 10 0.0 1.6 0.00 0.74 0.00 71 1009.0
20260507050016 10 0.0 4.8 0.00 0.74 0.00 71 1009.0
20260507043018 10 0.0 3.2 0.00 0.74 0.00 71 1009.2
20260507040017 11 0 1.6 4.8 0.00 0.74 0.74 71 1009.5
20260507033018 11 0.0 1.6 0.00 0.74 0.74 71 1009.1
20260507030018 11 0.0 1.6 0.00 0.74 0.74 71 1009.2
20260507023017 11 0.0 1.6 0.00 0.74 0.74 71 1009.6
20260507020017 11 45 1.6 4.8 0.00 0.74 0.74 71 1009.4
20260507013056 12 23 3.2 11.3 0.00 0.74 0.74 71 1008.8
20260507010016 15 23 1.6 8.0 0.00 0.74 0.74 72 1007.9
20260507003016 16 0.0 1.6 0.00 0.74 0.74 79 1007.0
20260507000016 16 0.0 1.6 0.00 0.74 0.74 79 1006.5
20260506233016 16 0.0 3.2 0.00 0.74 0.74 79 1006.3
20260506230017 16 0.0 8.0 0.00 0.74 0.74 79 1006.1